Location: Isola Pescaroli
(45.0500°N, 10.1667°E)
Time: 00:02:59
(UTC+00:00)

SL-4 R/B - Pass Details

Date: 14 June 2021
Orbit: 428 x 662 km, 51.6° (Epoch: 29 July)

Event Time Altitude Azimuth Distance (km) Brightness Sun altitude
Exits shadow 00:27:32 70° 220° (SW) 514 1.6 -20.0°
Maximum altitude 00:27:54 83° 150° (SSE) 486 1.6 -19.9°
Drops below altitude 10° 00:31:30 10° 62° (ENE) 1,601 5.0 -19.7°
Sets 00:33:34 0° 61° (ENE) 2,450 6.1 -19.6°
